Retour au catalogue

TITAN 3C TRANSTAGE DEB *

ActifMEO
NORAD 38697·DEBRIS·🇺🇸 United States

Lancé Sep 26, 1968 depuis Cape Canaveral Space Force Station

Loading…

Prochains Passages (prochaines 24 heures)

TLE

FraisSource: Space-Track

Époque: Sep 13, 2026, 22:03 UTC

1 38697U 68081X   26256.91878552 -.00000400  00000-0  00000-0 0  9997
2 38697   5.6485  43.4961 0748820 101.3394 267.3433  1.01488104 75760

Suivez TITAN 3C TRANSTAGE DEB * en temps réel avec AllMySat

Download on the App Store